Retour au catalogue

ONEWEB-0578

ActifCommunicationsPO
NORAD 56067·PAYLOAD·🇬🇧 United Kingdom

Lancé Mar 26, 2023 depuis Satish Dhawan Space Centre

Loading…

Prochains Passages (prochaines 24 heures)

TLE

FraisSource: CelesTrak SupGP

Époque: Sep 14, 2026, 15:48 UTC

1 56067C 23043X   26257.65886991 -.00000772  00000+0 -18712-2 0  2575
2 56067  87.9280 226.1636 0001976  91.0992 304.1505 13.21826586    10

Suivez ONEWEB-0578 en temps réel avec AllMySat

Download on the App Store